Weather History for Wiscasset, ME

Change the Weather History Date:

Thursday, May 1, 2014

  Actual Average Record
Temperature  
Mean Temperature 48 °F -  
Max Temperature 57 °F 58 °F 73 °F (1998)
Min Temperature 39 °F 35 °F 28 °F (2008)
Degree Days  
Heating Degree Days 17    
Moisture  
Dew Point 46 °F    
Average Humidity 92    
Maximum Humidity 100    
Minimum Humidity 80    
Precipitation  
Precipitation 0.77 in - - ()
Sea Level Pressure  
Sea Level Pressure 29.87 in    
Wind  
Wind Speed 5 mph (ESE)    
Max Wind Speed 9 mph    
Max Gust Speed -    
Visibility 5 miles    
Events Rain    
Averages and records for this station are not official NWS values.
T = Trace of Precipitation, MM = Missing Value Source: NWS Daily Summary

Daily Weather History Graph

Daily Weather History Graph

Search for Another Location

Airport:

Trip Planner

Search our weather history database for the weather conditions in past years. The results will help you decide how hot, cold, wet, or windy it might be!

Date:

Astronomy

May. 01, 2014 Rise Set
Actual Time 5:30 AM EDT 7:42 PM EDT
Civil Twilight 4:58 AM EDT 8:13 PM EDT
Nautical Twilight 4:19 AM EDT 8:53 PM EDT
Astronomical Twilight 3:36 AM EDT 9:36 PM EDT
Moon 7:13 AM EDT (5/1) 10:14 PM EDT (5/1)
Length of Visible Light 15h 14m
Length of Day
14h 11m
Waxing Crescent, 6% of the Moon is Illuminated
May 1
Waxing Crescent
May 6
First Quarter
May 14
Full
May 21
Last Quarter
May 28
New

Hourly Weather History & Observations

Time (EDT) Temp. Windchill Dew Point Humidity Pressure Visibility Wind Dir Wind Speed Gust Speed Precip Events Conditions
12:53 AM 39.9 °F 36.7 °F 37.9 °F 93% 30.26 in 8.0 mi SE 4.6 mph - 0.01 in Rain Light Rain
1:53 AM 39.9 °F 35.1 °F 37.9 °F 93% 30.22 in 4.0 mi ESE 6.9 mph - 0.02 in Rain Light Rain
2:53 AM 39.9 °F 35.1 °F 37.9 °F 93% 30.18 in 6.0 mi ESE 6.9 mph - 0.02 in   Overcast
3:53 AM 41.0 °F 36.4 °F 39.0 °F 93% 30.15 in 2.5 mi East 6.9 mph - 0.03 in Rain Light Rain
4:10 AM 41.0 °F 38.0 °F 39.0 °F 93% 30.14 in 3.0 mi Variable 4.6 mph - 0.01 in   Overcast
4:53 AM 41.0 °F 37.1 °F 39.0 °F 93% 30.11 in 3.0 mi East 5.8 mph - 0.03 in Rain Light Rain
5:19 AM 41.0 °F 37.1 °F 39.0 °F 93% 30.09 in 2.5 mi East 5.8 mph - 0.02 in Rain Light Rain
5:53 AM 42.1 °F 38.4 °F 39.9 °F 92% 30.07 in 2.5 mi East 5.8 mph - 0.05 in Rain Light Rain
6:13 AM 42.1 °F 38.4 °F 39.9 °F 92% 30.06 in 1.5 mi Variable 5.8 mph - 0.04 in Rain Light Rain
6:34 AM 43.0 °F 38.8 °F 41.0 °F 93% 30.05 in 2.5 mi Variable 6.9 mph - 0.07 in Rain Light Rain
6:53 AM 43.0 °F 39.5 °F 41.0 °F 93% 30.04 in 3.0 mi ESE 5.8 mph - 0.11 in Rain Light Rain
7:05 AM 43.0 °F 37.7 °F 41.0 °F 93% 30.03 in 2.5 mi East 9.2 mph - 0.02 in Rain Light Rain
7:53 AM 44.1 °F 39.0 °F 42.1 °F 93% 29.99 in 3.0 mi ESE 9.2 mph - 0.09 in Rain Light Rain
8:20 AM 45.0 °F 40.1 °F 43.0 °F 93% 29.96 in 2.0 mi East 9.2 mph - 0.05 in Rain Light Rain
8:53 AM 45.0 °F 41.2 °F 43.0 °F 93% 29.95 in 1.5 mi Variable 6.9 mph - 0.10 in Rain Light Rain
9:04 AM 45.0 °F 41.8 °F 44.1 °F 97% 29.94 in 2.0 mi East 5.8 mph - 0.02 in Rain Light Rain
9:24 AM 46.0 °F 43.9 °F 44.1 °F 93% 29.92 in 1.8 mi Variable 4.6 mph - 0.06 in Rain Light Rain
9:36 AM 46.0 °F 43.9 °F 44.1 °F 93% 29.92 in 1.2 mi Variable 4.6 mph - 0.09 in Rain Rain
9:53 AM 46.0 °F 43.9 °F 45.0 °F 96% 29.92 in 1.5 mi ESE 4.6 mph - 0.18 in Rain Rain
10:00 AM 46.9 °F - 45.0 °F 93% 29.91 in 1.2 mi ESE 3.5 mph - 0.03 in Rain Rain
10:13 AM 46.9 °F - 45.0 °F 93% 29.90 in 1.8 mi Calm Calm - 0.07 in Rain Light Rain
10:20 AM 46.9 °F - 46.0 °F 97% 29.90 in 2.5 mi ESE 3.5 mph - 0.07 in Rain Light Rain
10:44 AM 46.9 °F - 46.0 °F 97% 29.89 in 1.2 mi ENE 3.5 mph - 0.09 in Rain Light Rain
10:53 AM 46.9 °F - 46.0 °F 97% 29.88 in 1.5 mi East 4.6 mph - 0.10 in Rain Light Rain
11:01 AM 48.0 °F - 46.0 °F 93% 29.86 in 1.5 mi East 4.6 mph - 0.01 in Rain Light Rain
11:15 AM 48.0 °F - 46.0 °F 93% 29.85 in 2.5 mi East 5.8 mph - 0.02 in   Overcast
11:37 AM 48.9 °F - 46.9 °F 93% 29.83 in 1.8 mi East 4.6 mph - 0.02 in   Overcast
11:53 AM 48.9 °F - 48.0 °F 97% 29.82 in 2.0 mi East 6.9 mph - 0.02 in   Overcast
12:05 PM 50.0 °F - 48.0 °F 93% 29.81 in 1.2 mi Calm Calm - N/A   Overcast
12:17 PM 51.1 °F - 48.9 °F 92% 29.81 in 1.2 mi Variable 4.6 mph - N/A   Overcast
12:53 PM 51.1 °F - 48.9 °F 92% 29.79 in 1.5 mi Variable 3.5 mph - N/A   Overcast
1:40 PM 51.1 °F - 50.0 °F 96% 29.77 in 2.0 mi Calm Calm - N/A   Overcast
1:53 PM 51.1 °F - 50.0 °F 96% 29.76 in 2.0 mi Calm Calm - N/A   Overcast
2:07 PM 52.0 °F - 50.0 °F 93% 29.75 in 4.0 mi Calm Calm - N/A   Overcast
2:53 PM 54.0 °F - 51.1 °F 90% 29.73 in 10.0 mi Calm Calm - N/A   Overcast
3:43 PM 57.0 °F - 52.0 °F 83% 29.71 in 10.0 mi Calm Calm - N/A   Overcast
3:53 PM 55.9 °F - 51.1 °F 84% 29.71 in 10.0 mi Calm Calm - N/A   Overcast
4:53 PM 55.9 °F - 51.1 °F 84% 29.69 in 10.0 mi WNW 3.5 mph - N/A   Overcast
5:53 PM 55.9 °F - 51.1 °F 84% 29.69 in 10.0 mi Variable 3.5 mph - 0.00 in   Overcast
6:53 PM 55.9 °F - 50.0 °F 80% 29.69 in 10.0 mi Calm Calm - N/A   Overcast
7:53 PM 54.0 °F - 50.0 °F 86% 29.69 in 10.0 mi Calm Calm - N/A   Overcast
8:53 PM 53.1 °F - 50.0 °F 89% 29.70 in 10.0 mi Calm Calm - N/A   Overcast
9:53 PM 50.0 °F - 48.0 °F 93% 29.69 in 10.0 mi Calm Calm - N/A   Overcast
10:02 PM 50.0 °F - 48.0 °F 93% 29.69 in 9.0 mi South 3.5 mph - N/A   Overcast
10:11 PM 51.1 °F - 48.9 °F 92% 29.70 in 10.0 mi Calm Calm - N/A   Overcast
10:33 PM 50.0 °F - 50.0 °F 100% 29.69 in 10.0 mi Calm Calm - N/A   Overcast
10:53 PM 50.0 °F - 48.0 °F 93% 29.70 in 10.0 mi Calm Calm - N/A   Overcast
11:07 PM 50.0 °F - 48.9 °F 96% 29.71 in 10.0 mi Calm Calm - N/A   Overcast
11:42 PM 50.0 °F - 48.0 °F 93% 29.68 in 5.0 mi ESE 3.5 mph - 0.01 in   Overcast
11:53 PM 50.0 °F - 48.9 °F 96% 29.69 in 6.0 mi Calm Calm - 0.01 in   Overcast